Date,TemperatureHighF,TemperatureAvgF,TemperatureLowF,DewpointHighF,DewpointAvgF,DewpointLowF,HumidityHigh,HumidityAvg,HumidityLow,PressureMaxIn,PressureMinIn,WindSpeedMaxMPH,WindSpeedAvgMPH,GustSpeedMaxMPH,PrecipitationSumIn
2014-2-11,74,70,66,68,64,61,85,81,76,30.05,30.03,0,0,2,0.00
2014-2-12,82,70,60,69,64,59,98,82,59,30.04,29.83,9,2,25,0.48
2014-2-13,71,64,54,66,58,47,97,80,57,29.98,29.75,12,6,24,0.50
2014-2-14,73,58,45,51,47,41,93,69,32,30.10,29.97,4,1,10,0.02
2014-2-15,78,64,51,60,51,-100,94,66,48,30.13,29.98,11,3,22,0.00
2014-2-16,77,62,47,57,50,41,90,66,39,30.19,30.11,3,0,11,0.00
2014-2-17,78,65,53,57,54,50,94,70,40,30.24,30.15,4,0,11,0.00
2014-2-18,80,70,55,66,57,52,98,66,45,30.25,30.16,3,1,12,0.00
2014-2-19,80,74,59,67,63,58,98,71,56,30.19,30.09,5,1,13,0.00
2014-2-20,81,77,66,69,67,63,98,72,55,30.18,30.10,5,2,15,0.00
2014-2-21,84,77,73,72,70,69,90,79,63,30.11,30.02,7,3,17,0.00
2014-2-22,87,75,66,74,67,-100,98,80,51,30.12,30.00,5,1,13,0.14
2014-2-23,85,75,67,74,69,65,98,84,59,30.10,30.00,5,1,12,0.01
2014-2-24,86,75,67,71,68,61,98,80,44,30.05,29.97,4,0,11,0.00
2014-2-25,86,74,66,72,68,62,98,82,46,30.04,29.93,5,0,11,0.00
2014-2-26,87,74,65,69,64,58,98,75,40,29.98,29.75,12,3,21,0.00
2014-2-27,78,71,63,69,64,60,93,78,56,29.96,29.76,6,2,14,0.02
2014-2-28,74,64,57,61,57,50,97,80,46,30.09,29.91,7,2,14,0.17
2014-3-1,80,67,56,63,56,-100,96,73,44,30.17,30.06,8,1,16,0.01
2014-3-2,79,69,57,66,60,56,98,76,47,30.20,30.09,6,2,12,0.01
2014-3-3,87,72,58,64,59,53,98,70,33,30.09,29.98,7,1,13,0.00
2014-3-4,82,71,61,65,63,60,96,77,54,30.08,29.98,4,0,11,0.00
2014-3-5,84,72,63,70,65,61,98,80,52,30.05,29.92,7,2,15,0.02
2014-3-6,83,71,65,74,67,64,98,89,60,30.01,29.76,10,2,26,0.32
2014-3-7,76,68,58,66,61,52,96,78,54,30.03,29.79,11,5,20,0.01
2014-3-8,76,62,51,60,52,-100,94,74,48,30.16,30.03,5,1,13,0.00
2014-3-9,79,68,58,64,60,57,98,79,55,30.18,30.09,4,0,11,0.01
2014-3-10,84,72,60,64,61,56,98,72,39,30.13,29.98,4,1,10,0.01
2014-3-11,85,72,59,66,62,56,96,72,45,30.03,29.86,6,2,16,0.00
2014-3-12,85,75,68,72,66,64,92,77,52,29.91,29.75,11,4,23,0.08
2014-3-13,72,66,56,68,54,43,87,66,40,30.18,29.86,9,4,20,0.08
2014-3-14,73,64,54,55,51,45,88,64,47,30.27,30.16,8,2,19,0.00
2014-3-15,79,69,60,63,59,56,95,72,49,30.19,30.06,7,1,17,0.00
2014-3-16,81,73,61,66,60,-100,91,68,54,30.07,29.83,11,5,23,0.00
2014-3-17,86,77,71,71,66,-100,90,71,52,29.85,29.73,10,4,21,0.00
2014-3-18,80,72,62,71,62,51,96,73,43,30.02,29.69,11,4,26,0.26
2014-3-19,82,70,59,65,61,58,98,75,51,30.08,29.99,5,0,11,0.20
2014-3-20,82,72,62,69,63,-100,98,79,61,30.06,29.96,6,1,15,0.00
2014-3-21,81,72,62,70,64,-100,98,80,64,30.07,29.97,7,2,15,0.00
2014-3-22,81,76,71,72,69,66,91,79,71,30.09,29.97,6,2,14,0.01
2014-3-23,89,75,64,70,64,-100,97,73,44,30.07,29.95,8,1,17,0.01
2014-3-24,75,70,65,69,67,63,97,89,78,30.06,29.92,4,1,11,0.56
2014-3-25,79,70,63,70,64,52,98,84,62,30.01,29.84,10,4,18,0.88
2014-3-26,67,60,52,53,47,37,85,62,49,30.27,30.02,8,4,22,0.07
2014-3-27,74,67,56,62,56,52,92,69,53,30.32,30.20,8,3,17,0.00
2014-3-28,79,75,71,68,63,58,80,68,56,30.21,30.07,11,5,26,0.00
2014-3-29,82,75,67,75,70,64,95,84,72,30.10,29.91,9,4,28,0.54
2014-3-30,79,69,59,67,54,-100,95,65,25,30.08,29.91,7,2,15,0.54
2014-4-7,87,79,74,73,70,66,89,74,54,30.00,29.87,8,3,18,0.00
2014-4-8,89,77,66,75,70,61,94,80,56,29.94,29.75,12,6,30,0.10
2014-4-9,78,69,61,64,56,49,91,64,36,30.16,29.88,10,4,22,0.02
2014-4-10,78,68,57,59,54,48,90,64,35,30.27,30.16,7,2,16,0.00
2014-4-11,79,70,59,68,65,57,97,86,62,30.24,30.14,8,2,13,0.32
2014-4-12,81,72,62,68,63,60,98,75,49,30.19,30.09,8,2,18,0.08
2014-4-13,79,74,72,70,64,-100,84,78,71,30.11,30.01,9,5,18,0.03
2014-4-14,86,77,69,75,71,68,97,81,60,30.01,29.91,7,3,16,0.15
2014-4-15,87,79,70,74,72,68,96,79,58,29.94,29.83,7,3,14,0.00
2014-4-16,80,73,68,72,67,63,94,83,67,30.09,29.93,8,4,16,0.04
2014-4-17,81,76,73,72,70,68,87,82,71,30.16,30.05,8,4,17,0.01
2014-4-18,83,78,71,73,70,69,97,79,65,30.11,29.96,9,4,19,0.07
2014-4-19,88,78,68,73,68,59,96,75,54,29.98,29.87,9,4,21,0.17